Regional Weather Roundup
Issued by NWS

Home | Current Version | Previous Version | Graphics & Text | Print | Product List | Glossary Off
Versions: 1 2 3 4 5 6 7 8 9 10 11 12 13 14 15 16 17 18 19 20 21 22 23 24 25 26 27 28 29 30 31 32 33 34 35 36 37 38 39 40 41 42 43 44 45 46 47 48 49 50

000
ASUS45 KBOU 301110
RWRCO

WEATHER ROUNDUP FOR COLORADO
NATIONAL WEATHER SERVICE DENVER/BOULDER CO
500 AM MDT TUE JUN 30 2015

NOTE: "FAIR" INDICATES FEW OR NO CLOUDS BELOW 12000 FEET WITH NO
SIGNIFICANT WEATHER AND/OR OBSTRUCTIONS TO VISIBILITY.

COZ001>005-013-030-031-301200-
...NORTHWEST COLORADO...

CITY           SKY/WX    TMP DP  RH WIND       PRES   REMARKS
CRAIG          PTCLDY    51  45  79 W3        30.25R
HAYDEN         PTCLDY    57  43  58 E12       30.27S
MEEKER         PTCLDY    52  43  71 NE5       30.27R
MOUNT WERNER   NOT AVBL
STEAMBOAT SPGS PTCLDY    52  46  78 CALM      30.31S
WALDEN         PTCLDY    45  41  87 E5        30.41S
$$

COZ006>008-011-301200-
...WEST CENTRAL VALLEYS...

CITY           SKY/WX    TMP DP  RH WIND       PRES   REMARKS
GRAND JUNCTION CLEAR     70  44  39 E12       30.10R
MONTROSE       CLEAR     64  46  52 S8        30.22R
EAGLE          PTCLDY    55  45  67 CALM      30.33S
RIFLE          PTCLDY    59  43  55 SE6       30.20R
DELTA          CLEAR     69  46  42 NE8       30.17R
NUCLA          CLEAR     66  43  42 SE9       30.24R
$$

COZ017>023-064>068-301200-
...SOUTHWEST COLORADO...

CITY           SKY/WX    TMP DP  RH WIND       PRES   REMARKS
DURANGO        CLEAR     57  50  77 CALM      30.32R
CORTEZ         CLEAR     58  48  69 VRB3      30.23R
PAGOSA SPRINGS CLEAR     54  45  73 CALM      30.41S
TELLURIDE      CLEAR     63  40  42 CALM      30.49S
WOLF CREEK PAS NOT AVBL
$$

COZ009-010-012-014-032>034-037-058>063-301200-
...CENTRAL COLORADO...

CITY           SKY/WX    TMP DP  RH WIND       PRES   REMARKS
ASPEN          CLEAR     52  42  69 CALM      30.38R
BUENA VISTA    CLEAR     53  46  76 CALM      30.43S
COPPER MTN     PTCLDY    54  37  54 W9        30.71S
BERTHOUD PASS  FAIR      45  36  70 N20       30.74S
COTTONWOOD PAS NOT AVBL
GUNNISON       CLEAR     52  43  71 CALM      30.43S
KREMMLING      PTCLDY    50  41  71 CALM      30.40S
LEADVILLE      CLEAR     39  37  92 CALM      30.55S
MONARCH PASS   CLEAR     46  41  81 SW14      30.80S
SALIDA         CLEAR     55  49  81 CALM      30.47S
SUNLIGHT       PTCLDY    59  41  51 CALM      30.64R
WILKERSON PASS CLEAR     48  43  81 W6        30.67S
$$

COZ069>075-301200-
...SAN LUIS VALLEY/SANGRE DE CRISTO MOUNTAINS...

CITY           SKY/WX    TMP DP  RH WIND       PRES   REMARKS
ALAMOSA        CLEAR     51  45  79 SE6       30.39R
LA VETA PASS   CLEAR     52  41  66 MISG      30.56S
SAGUACHE       PTCLDY    50  46  87 NW12      30.42S
$$

COZ035-036-038>040-301200-
...NORTHERN COLORADO FRONT RANGE...

CITY           SKY/WX    TMP DP  RH WIND       PRES   REMARKS
DENVER INTL AP PTCLDY    65  50  58 SW9       30.17F
DMNS CITY PARK   N/A     65  49  55 SE8       30.17F
AURORA         PTCLDY    62  51  67 S9        30.20S
FRONT RANGE AP CLEAR     64  54  68 S10       30.19S
ERIE MUNI ARPT CLEAR     55  52  87 CALM      30.16F
BOULDER MUN AP CLEAR     63  46  55 CALM      30.17S
CENTENNIAL     MOCLDY    61  50  67 S6        30.22S
BROOMFIELD     CLEAR     64  48  55 CALM      30.19F
FORT COLLINS   PTCLDY    63  54  72 N3        30.17S
LONGMONT       PTCLDY    60  52  76 CALM      30.18R
$$

COZ041-046-047-076>085-087-088-301200-
...PIKES PEAK/PALMER DIVIDE AND SOUTHERN FOOTHILLS...

CITY           SKY/WX    TMP DP  RH WIND       PRES   REMARKS
COLO. SPRINGS  PTCLDY    58  51  78 N7        30.26F
A. F. ACADEMY  CLEAR     53  48  85 N12       30.28F
ELLICOTT       CLEAR    N/A N/A N/A CALM      30.25S
FALCON         CLEAR     56  48  75 NW6       30.31F
FORT CARSON    CLEAR     58  50  74 NW7       30.23S
LIMON          PTCLDY    52  52 100 N6        30.20F
MONUMENT HILL  CLEAR     55  46  71 MISG      30.31S
TRINIDAD       CLEAR     62  50  64 W15       30.23F
$$

COZ042>045-048>051-090-091-301200-
...NORTHEAST COLORADO...

CITY           SKY/WX    TMP DP  RH WIND       PRES   REMARKS
GREELEY ARPT   PTCLDY    57  55  94 NW7       30.14F
AKRON          CLEAR     65  53  65 SW10      30.12F
BURLINGTON     CLEAR     61  53  75 W9        30.12R
WRAY           CLEAR     58  56  91 W3        30.07S
STERLING       CLEAR     57  55  94 SW6       30.08S
HOLYOKE        CLEAR     61  55  82 W6        30.06S
FORT MORGAN    CLEAR     56   6  13 W3        30.12F
$$

COZ086-089-092>099-301200-
...SOUTHEAST COLORADO...

CITY           SKY/WX    TMP DP  RH WIND       PRES   REMARKS
PUEBLO         CLEAR     62  54  74 W6        30.16S
LA JUNTA       CLEAR     61  54  77 W5        30.13R
LAMAR          CLEAR     57  54  89 CALM      30.09S
SPRINGFIELD      N/A     60  52  74 SW10      30.15S
$$


USA.gov is the U.S. government's official web portal to all federal, state and local government web resources and services.